www.pogodaiklimat.ru

Погода и климат >> Архив погоды >> Украина >> Ильичевск


ПОГОДА в Ильичёвске

  • Прогноз погоды в Ильичёвске
  • Монитор погоды в Ильичёвске
  • Климат города

АРХИВ ПОГОДЫ в Ильичёвске

Время (UTC), дата Ветер
(напр.,м/с)
 
Видим.   Явления Облачность Т
(С)
Тd
(С)
f
(%)
Тe
(С)
Тes
(С)
Комфортность P
(гПа)
Po
(гПа)
Тmin
(С)
Tmax
(С)
R
(мм)
S
(см)
21 20.03 штиль 0 10 баллов 86 1008.0
00 21.03 штиль 0 н/о 9 баллов +5.2 +3.1 86 +4 +4 1014.5 1008.0
03 21.03 штиль 0 н/о 7 баллов +4.4 +2.4 87 +3 +3 1014.5 1008.0
06 21.03 С 1 ясно 82 1010.7
09 21.03 В 2 н/о 5 баллов +8.4 +4.8 78 +7 +12 1018.4 1012.0
12 21.03 ЮВ 2 9 баллов 74 1012.0
15 21.03 Ю 2 ясно 77 1012.0
18 21.03 Ю 1 н/о ясно +5.7 +2.0 77 +5 +5 1019.8 1013.3
21 21.03 Ю 2 ясно 84 1014.7
00 22.03 штиль 0 н/о ясно +3.4 +1.3 86 +2 +2 1021.2 1014.7
03 22.03 штиль 0 н/о ясно +3.2 +1.2 87 +2 +2 1021.2 1014.7
06 22.03 ЮВ 1 н/о ясно +6.2 +4.8 91 +5 +9 1022.5 1016.0
09 22.03 ЮВ 2 ясно 80 1022.7 1018.7
12 22.03 Ю 2 н/о 5 баллов +8.6 +4.4 75 +7 +11 1022.4 1016.0
15 22.03 Ю 3 н/о 7 баллов +7.6 +4.5 81 +5 +5 1022.4 1016.0
18 22.03 Ю 3 н/о 7 баллов +6.6 +3.7 82 +4 +4 1023.8 1017.3
21 22.03 Ю 2 ясно 79 1022.7 1018.7
00 23.03 Ю 1 10 км ясно +5.5 +4.1 91 +4 +4 1022.2 1022.0
03 23.03 штиль 0 н/о туман н/о +5.3 +5.3 100 +4 1025.2 1018.7
06 23.03 штиль 0 н/о туман н/о +5.6 +5.6 100 +4 1026.5 1020.0
09 23.03 Ю 3 н/о ясно +6.5 +4.7 88 +3 1026.5 1020.0
12 23.03 Ю 3 н/о ясно +10.2 +4.6 68 +8 1026.4 1020.0
15 23.03 Ю 3 н/о ясно +10.0 +5.0 71 +8 +9 1026.4 1020.0
18 23.03 Ю 2 н/о ясно +7.1 +0.1 61 +5 +5 1027.8 1021.3
21 23.03 ЮВ 2 н/о ясно +5.6 -0.5 65 +3 +3 1027.8 1021.3
00 24.03 Ю 1 н/о ясно +5.4 -1.3 62 +5 +5 1026.5 1020.0
03 24.03 Ю 1 н/о ясно +4.6 +0.4 74 +3 +3 1026.5 1020.0
06 24.03 Ю 2 дымка ясно 85 1027.0 1020.0
09 24.03 ЮВ 4 н/о 4 балла +7.4 +5.5 88 +4 +8 1026.5 1020.0
12 24.03 Ю 5 н/о 5 баллов +8.8 +5.4 79 +5 +8 1023.7 1017.3
15 24.03 Ю 4 н/о 4 балла +8.6 +5.0 78 +6 +6 1022.4 1016.0
18 24.03 ЮЗ 1 н/о 7 баллов +9.0 +5.6 79 +8 +8 1022.4 1016.0
21 24.03 З 3 н/о слабый ливневой дождь н/о +10.6 +6.4 75 +9 1022.4 1016.0
00 25.03 СЗ 4 н/о в посл. час ливневой дождь н/о +9.2 +7.1 87 +6 1023.7 1017.3 3.0
06 25.03 СЗ 5 н/о 1 балл +7.4 +3.6 77 +4 +5 1025.2 1018.7 3.0
09 25.03 СВ 1 н/о 3 балла +9.8 +5.6 75 +9 +18 1025.1 1018.7
12 25.03 В 2 н/о 7 баллов +9.4 +2.3 61 +8 +11 1022.4 1016.0
15 25.03 Ю 2 н/о 8 баллов +9.6 +2.9 63 +8 +8 1019.7 1013.3
18 25.03 ЮЗ 2 н/о 8 баллов +8.4 +2.2 65 +7 +7 1019.7 1013.3
21 25.03 СЗ 1 н/о 8 баллов +7.3 -0.2 59 +7 +7 1018.4 1012.0
26.03 2 н/о 8 баллов +7.1 -0.8 57 +5 +5 1015.7 1009.3
00 26.03 В 2 8 баллов 57 1010.7
03 26.03 С 1 слабый дождь н/о 81 1009.3
06 26.03 СВ 2 15 км слабый ливневой дождь 10/10 630 м
[Cb cap]
+6.3 +2.7 78 +4 +4 1013.1 1013.0 +6.2 0.4
09 26.03 В 4 слабый дождь н/о 91 1009.3
12 26.03 штиль 0 н/о в посл. час дождь н/о +5.2 +3.5 89 +4 1015.8 1009.3 3.0
15 26.03 СЗ 3 в посл. час дождь н/о 88 1012.0
18 26.03 СЗ 6 10 км {дождь} 10/10 660 м
[Sc]
+5.7 +3.0 83 +1 +1 1017.5 1018.0 +7.5 3
21 26.03 СЗ 4 3 балла 81 1014.7
00 27.03 СЗ 5 10 км ясно +2.6 -0.1 82 -3 -3 1019.7 1020.0
03 27.03 СЗ 4 н/о 3 балла +2.4 -0.5 81 -2 -2 1022.6 1016.0
06 27.03 СЗ 4 ясно 75 1022.8 1016.0
09 27.03 З 6 н/о 8 баллов +7.3 -0.2 59 +3 +4 1021.1 1014.7
12 27.03 СЗ 8 н/о 8 баллов +9.8 +1.7 57 +6 +6 1018.4 1012.0
15 27.03 СЗ 8 н/о 8 баллов +12.0 +1.6 49 +9 +9 1017.0 1010.7
18 27.03 З 3 н/о ясно +10.1 +2.9 61 +8 +8 1018.4 1012.0

 

Местоположение метеостанции Ильичевск (Одесская область, Украина): широта 46.40 долгота 30.70 высота над уровнем моря 52 м.

В архиве по умолчанию представлена погода в Ильичёвске за последнюю неделю. Архивные данные за месяц целиком и за предыдущие месяцы, начиная с января 2011 года, Вы можете получить, выбрав интересующий диапазон дат из раскрывающегося списка и нажав кнопку "Ввод!".

Внимание! Время в таблицах - всемирное. Для получения местного времени необходимо прибавить поправку, которая в Ильичёвске равна 2 ч.

Смотрите также архив погоды в соседних городах и на ближайших метеорологических станциях:

Погода в Одессе (Одесская область, Украина) (6 км)
Погода в Белгород-Днестровском (Одесская область, Украина) (35 км)
Погода в Раздельной (Одесская область, Украина) (69 км)
Погода в Сербке (Одесская область, Украина) (69 км)
Погода в Заставе (Одесская область, Украина) (70 км)
Погода в Очакове (Николаевская область, Украина) (70 км)
Погода в Сарате (Одесская область, Украина) (90 км)
Погода в Штефан Водэ (Молдова) (94 км)
Погода в Тирасполе (Молдова) (101 км)
Погода в Вилково (Одесская область, Украина) (108 км)

Пояснения к столбцам:

Ветер - указаны скорость ветра в м/с - средняя за 10 мин, порывы в срок и между сроками (в фигурных скобках) и направление, откуда дует ветер: С - северный, СВ - северо-восточный, В - восточный, ЮВ - юго-восточный, Ю - южный, ЮЗ - юго-западный, З - западный, СЗ - северо-западный.
Видимость - горизонтальная дальность видимости в метрах или километрах. При видимости от 1 до 10 км при отсутствии осадков обычно наблюдается дымка, при ухудшении видимости до 1 км и менее - туман. В сухую погоду видимость может ухудшаться дымом, пылью или мглою.
Явления - указаны атмосферные явления, наблюдавшиеся в срок или в последний час перед сроком; фигурными скобками обозначены явления, наблюдавшиеся между сроками (за 1-3 часа до срока); квадратными скобками обозначены град или гололедные отложения с указанием их диаметра в мм.
Облачность - указаны через наклонную черту общая и нижняя облачность в баллах и высота нижней границы облаков в метрах; квадратными скобками обозначены формы облаков: Ci - перистые, Cs - перисто-слоистые, Cc - перисто-кучевые, Ac - высококучевые, As - высокослоистые, Sc - слоисто-кучевые, Ns - слоисто-дождевые, Cu - кучевые, Cb - кучево-дождевые. Подробнее классификацию облаков см. в Атласе облаков (PDF).
T - Температура воздуха - температура, измеренная на высоте 2 м над землей.
Td - Температура точки росы - температура, при понижении до которой содержащийся в воздухе водяной пар достигнет насыщения.
f - Относительная влажность воздуха - влажноcть воздуха, измеренная на высоте 2 м над землей.
Te - Эффективная температура - температура, которую ощущает одетый по сезону человек в тени. Характеристика душности погоды. При расчете учитывается влияние влажности воздуха и скорости ветра на теплоощущения человека.
Tes - Эффективная температура на солнце - температура, которую ощущает человек, с поправкой на солнечный нагрев. Характеристика знойности погоды. Зависит от высоты солнца над горизонтом, облачности и скорости ветра. Ночью, в пасмурную погоду, а также при ветре 12 м/с и более поправка равна нулю.
P - Атмосферное давление - приведенное к уровню моря атмосферное давление.
Po - Атмосферное давление - измеренное на уровне метеостанции атмосферное давление.
Tmin - Минимальная температура - минимум температуры воздуха на высоте 2 м над землей.
Tmax - Максимальная температура - максимум температуры воздуха на высоте 2 м над землей.
R - Количество осадков - Количество выпавших осадков, мм. При наведении курсора мыши на число - период времени, за который выпало указанное количество осадков.
S - Снежный покров - Высота снежного покрова, см. При наведении курсора мыши на число - состояние снежного покрова и степень покрытия местности в баллах.